Epoch 2005 Sept. 27.0 TT = JDT 2453640.5 T 2005 Oct. 8.41415 TT MPC q 2.0470774 (2000.0) P Q n 0.07633770 Peri. 117.95307 +0.92508930 -0.27615700 a 5.5035552 Node 259.06498 +0.18075506 +0.92388232 e 0.6280445 Incl. 15.39590 +0.33397215 +0.26491275 P 12.91
m1 = 13.5 + 5 logΔ + 10.0 log r